User: anonymous   Login
Location: Unspecified
(0.0000°N, 0.0000°E)
Time: 08:19:53
(UTC+00:00)
Language:

RS-1 - Orbit

View from above orbital plane
View from above orbital plane
View from above satellite
View from above satellite

Ground track
Ground track

The orbit data is extracted from the following two-line orbital elements,

1 11085U 78100B   21067.74241117  .00000010  00000-0  21017-4 0  9990
2 11085  82.5459  55.8900 0012099 223.4782 310.0299 11.96550169850411
Epoch (UTC): 08 March 2021 17:49:04
Eccentricity: 0.0012099
inclination: 82.5459°
perigee height: 1686 km
apogee height: 1706 km
right ascension of ascending node: 55.8900°
argument of perigee: 223.4782°
revolutions per day: 11.96550169
mean anomaly at epoch: 310.0299°
orbit number at epoch: 85041

The dashed part of the orbit path shows where the satellite is in the earth's shadow,  

DLR